STARLINK-3851, 52344

Orbit data source: Space-Track

STARLINK-3851, 52344 is a payload satellite owned by SpaceX/Seattle (US) in LEO that was launched on Fri, 29 Apr 2022 UTC via an FALCON 9 launch vehicle from the Air Force Eastern Test Range (AFETR). Payload-class satellites include a variety of spacecraft equipped with specific instruments for various scientific and technological missions. These include communications satellites like Starlink; space stations such as the ISS; scientific satellites like the Hubble; Earth observation satellites from companies like Planet Labs, Umbra, and HawkEye 360; GPS; miniature CubeSats for education and research; and military/defense satellites.

Loading next visibility...
Identifier
52344, 2022-045P
Orbit
LEO
Country
Flag of USUS
Related business
Manufacturer
SpaceX/Seattle
Mission
Operational Commercial Communications
Bus & Motor
STARLINK, Unknown motor
Mass
297 kg wet, ~275 kg dry
Launch date (UTC)
2022-04-29 (4 years ago)
Launch vehicle
FALCON 9
Launch site
Air Force Eastern Test Range (AFETR)
Object type
Payload
Rocket body
Debris
Shape & HBR
Box + 1 Pan, 10.1 m
Radar Cross Section
11.087 m², Large (>1 m²)

Expand to show TLE details & history
Last TLE update: 3 days ago

TLE from 3 days ago
0 STARLINK-3851
1 52344U 22045P   26170.52568565  .00000204  00000-0  30944-4 0  9999
2 52344  53.1611 101.9197 0001418  96.9186 263.1967 15.08834212231158
Epoch: 2026-06-19T12:36Z
TLE epoch observation values (Epoch: 2026-06-19T12:36:59.240Z)
Latitude
0.00001°
Longitude
4.91947°
Altitude
540.769 km
Speed
7.593 km/s
True Right ascension
06h 47m 40s
True Declination
0° 00' 00"
Sunlit
Object was in daylight at epoch
Visualization orbit readout
Latitude
Unknown
Longitude
Unknown
Altitude
Unknown
Speed
Unknown
Apparent Right ascension
Unknown
Apparent Declination
Unknown
Sunlit
N/A
Visualization observer readout
Local Sidereal Time
21:40:02
Azimuth
Unknown
Elevation
Unknown
Doppler factor
Unknown
Orbital elements
Apogee altitude
540.996 km
Perigee altitude
539.034 km
Semi-major axis
6,918.152 km
Eccentricity
0.00014
Inclination
53.1611°
RAAN
101.9197°
Arg. of periapsis
96.9186°
True anomaly
263.18057°
Mean anomaly
263.1967°
Eccentric anomaly
263.18863°
Mean motion
3.77188 °/min
Orbital period
95.44 mins
BSTAR
0.000030944
Loading maneuver chart data...
Computing Atmospheric mass density...
Loading historical data...
Loading historical data...
Loading historical data...
Loading historical data...
Loading historical data...
Loading historical data...
Loading historical data...

Documentation

Showing up to 5 results
|